{"data":{"norad_id":52838,"intl_designator":"2022-062J","name":"STARLINK-4092","alt_names":[],"object_type":"PAYLOAD","status":"ACTIVE","operator":null,"country":"US","launch_date":"2022-06-17","launch_site_code":"AFETR","launch_vehicle":null,"mission":null,"orbit_class":"UNKNOWN","rcs_meters":null,"size_class":null,"mass_kg":null,"dimensions":null,"purposes":["comms"],"wikipedia_slug":null,"has_3d_model":false,"image_url":null,"decayed_at":null,"tle_current":{"epoch":"2026-05-25T01:24:28.617984Z","epoch_age_seconds":84159,"freshness":"FRESH","line1":"1 52838U 22062J   26145.05866456 -.00000130  00000+0  99243-5 0  9992","line2":"2 52838  53.2142  51.2757 0001409  74.8323 285.2825 15.08845527217314","mean_motion":15.08845527,"eccentricity":0.0001409,"inclination_deg":53.2142,"raan_deg":51.2757,"arg_perigee_deg":74.8323,"mean_anomaly_deg":285.2825,"bstar":9.9243e-6,"rev_number":21731,"period_min":95.437205083751,"perigee_km":538.75176822131,"apogee_km":540.70122215426,"semimajor_km":6917.8634951878,"source":"CELESTRAK","updated_at":"2026-05-25T13:38:17.242044Z"}}}